TimePST,TemperatureF,Dew PointF,Humidity,Sea Level PressureIn,VisibilityMPH,Wind Direction,Wind SpeedMPH,Gust SpeedMPH,PrecipitationIn,Events,Conditions,WindDirDegrees,DateUTC
12:55 AM,25.0,19.0,78,30.47,10.0,West,3.5,-,N/A,,Overcast,270,2013-01-05 08:55:00
1:55 AM,25.0,19.0,78,30.45,10.0,Calm,Calm,-,N/A,,Overcast,0,2013-01-05 09:55:00
2:55 AM,25.0,19.0,78,30.45,10.0,NW,3.5,-,N/A,,Overcast,320,2013-01-05 10:55:00
4:55 AM,25.0,19.0,78,30.43,10.0,NW,4.6,-,N/A,,Overcast,320,2013-01-05 12:55:00
5:55 AM,25.0,19.9,81,30.43,10.0,WNW,3.5,-,N/A,,Overcast,300,2013-01-05 13:55:00
6:55 AM,25.0,19.0,78,30.42,10.0,NNW,4.6,-,N/A,,Overcast,330,2013-01-05 14:55:00
7:55 AM,25.0,19.9,81,30.41,10.0,WNW,4.6,-,N/A,,Overcast,290,2013-01-05 15:55:00
8:23 AM,24.8,19.4,80,30.35,2.0,WNW,4.6,-,0.00,Snow,Light Snow,290,2013-01-05 16:23:00
8:39 AM,24.8,21.2,86,30.36,1.2,WNW,4.6,-,0.00,Snow,Light Snow,300,2013-01-05 16:39:00
8:47 AM,24.8,21.2,86,30.36,1.2,WNW,5.8,-,0.00,Snow,Light Snow,290,2013-01-05 16:47:00
8:55 AM,25.0,21.0,85,30.41,1.5,WNW,5.8,-,0.00,Snow,Light Snow,290,2013-01-05 16:55:00
9:14 AM,24.8,21.2,86,30.35,2.5,WNW,5.8,-,0.00,Snow,Light Snow,290,2013-01-05 17:14:00
9:22 AM,24.8,21.2,86,30.35,7.0,West,4.6,-,0.00,,Overcast,280,2013-01-05 17:22:00
9:55 AM,25.0,21.9,88,30.41,9.0,West,5.8,-,0.00,,Overcast,270,2013-01-05 17:55:00
10:55 AM,25.0,21.9,88,30.40,10.0,West,4.6,-,N/A,,Overcast,280,2013-01-05 18:55:00
11:55 AM,26.1,21.9,84,30.37,10.0,WNW,6.9,-,N/A,,Overcast,290,2013-01-05 19:55:00
12:55 PM,27.0,21.9,81,30.34,10.0,West,4.6,-,N/A,,Overcast,280,2013-01-05 20:55:00
1:55 PM,26.1,23.0,88,30.33,1.2,West,4.6,-,0.00,Snow,Light Snow,270,2013-01-05 21:55:00
2:47 PM,26.6,24.8,93,30.28,0.8,Calm,Calm,-,0.01,Snow,Light Snow,0,2013-01-05 22:47:00
2:55 PM,26.1,24.1,92,30.33,0.8,Calm,Calm,-,0.01,Snow,Light Snow,0,2013-01-05 22:55:00
3:05 PM,26.6,24.8,93,30.27,1.0,Calm,Calm,-,0.00,Snow,Light Snow,0,2013-01-05 23:05:00
3:16 PM,26.6,24.8,93,30.27,0.8,SW,3.5,-,0.01,Snow,Light Snow,230,2013-01-05 23:16:00
3:28 PM,26.6,23.0,86,30.27,1.2,Calm,Calm,-,0.01,Snow,Light Snow,0,2013-01-05 23:28:00
3:46 PM,26.6,23.0,86,30.27,1.8,Calm,Calm,-,0.01,Snow,Light Snow,0,2013-01-05 23:46:00
3:55 PM,26.1,24.1,92,30.32,2.0,Calm,Calm,-,0.01,Snow,Light Snow,0,2013-01-05 23:55:00
4:14 PM,26.6,24.8,93,30.27,1.5,Calm,Calm,-,0.00,Snow,Light Snow,0,2013-01-06 00:14:00
4:39 PM,26.6,24.8,93,30.26,3.0,Calm,Calm,-,0.00,Snow,Light Snow,0,2013-01-06 00:39:00
4:55 PM,26.1,24.1,92,30.31,3.0,Calm,Calm,-,0.00,Snow,Light Snow,0,2013-01-06 00:55:00
5:55 PM,26.1,24.1,92,30.30,3.0,Calm,Calm,-,0.00,,Scattered Clouds,0,2013-01-06 01:55:00
6:08 PM,26.6,23.0,86,30.25,2.5,Calm,Calm,-,N/A,,Scattered Clouds,0,2013-01-06 02:08:00
6:22 PM,26.6,24.8,93,30.25,3.0,Calm,Calm,-,N/A,,Mostly Cloudy,0,2013-01-06 02:22:00
6:55 PM,26.1,23.0,88,30.29,1.5,Calm,Calm,-,N/A,,Overcast,0,2013-01-06 02:55:00
7:08 PM,26.6,24.8,93,30.24,2.5,Calm,Calm,-,N/A,,Overcast,0,2013-01-06 03:08:00
7:16 PM,26.6,24.8,93,30.24,4.0,Calm,Calm,-,N/A,,Overcast,0,2013-01-06 03:16:00
7:55 PM,25.0,23.0,92,30.28,4.0,Calm,Calm,-,N/A,,Overcast,0,2013-01-06 03:55:00
8:55 PM,26.1,24.1,92,30.26,4.0,Calm,Calm,-,0.00,,Overcast,0,2013-01-06 04:55:00
9:55 PM,26.1,24.1,92,30.25,5.0,Calm,Calm,-,0.00,,Overcast,0,2013-01-06 05:55:00
10:25 PM,26.6,23.0,86,30.20,5.0,Calm,Calm,-,N/A,,Overcast,0,2013-01-06 06:25:00
10:39 PM,26.6,24.8,93,30.20,5.0,Calm,Calm,-,N/A,,Overcast,0,2013-01-06 06:39:00
10:55 PM,26.1,23.0,88,30.25,5.0,Calm,Calm,-,N/A,,Overcast,0,2013-01-06 06:55:00
11:55 PM,27.0,25.0,92,30.22,4.0,SE,3.5,-,N/A,,Overcast,130,2013-01-06 07:55:00